CFG8WX LEPA-EDDF

Flight info

Callsign CFG8WX
Flight time 2h 4m
Altitude 36000
Route MEROS9B MEROS DCT LAPIT DCT CHELY DCT LUMAS DCT MAXIR DCT LUSOL DCT BODRU DCT OKTET DCT IRMAR DCT KINES DCT VANAS DCT MOBLO DCT UBIMA DCT SOSAL DCT KORED DCT BERSU N871 DITON DCT LADOL T163 EMPAX EMPAX5C
Aircraft A321/M-SDE3FGHIRWY/LB1

Departure

Time 2026-05-01 12:04
Airport Palma de Mallorca Airport (LEPA)

Arrival

Time 2026-05-01 14:08
Airport Frankfurt Main Airport (EDDF)
Time Latitude Longitude Altitude Speed Heading
2026-05-01 11:12 39.54752 2.73638 31 ft 0 kts 59°
2026-05-01 11:56 39.54752 2.73637 30 ft 1 kts 59°
2026-05-01 11:56 39.54744 2.73620 31 ft 3 kts 65°
2026-05-01 11:56 39.54737 2.73596 31 ft 3 kts 80°
2026-05-01 11:57 39.54736 2.73572 27 ft 3 kts 104°
2026-05-01 11:57 39.54742 2.73552 29 ft 2 kts 141°
2026-05-01 11:57 39.54746 2.73548 29 ft 0 kts 148°
2026-05-01 12:00 39.54664 2.73612 31 ft 11 kts 152°
2026-05-01 12:00 39.54587 2.73636 32 ft 12 kts 178°
2026-05-01 12:00 39.54486 2.73489 33 ft 11 kts 239°
2026-05-01 12:01 39.54445 2.73400 34 ft 12 kts 239°
2026-05-01 12:01 39.54403 2.73310 34 ft 12 kts 238°
2026-05-01 12:01 39.54352 2.73206 35 ft 14 kts 238°
2026-05-01 12:01 39.54314 2.73137 35 ft 1 kts 193°
2026-05-01 12:02 39.54307 2.73148 35 ft 4 kts 127°
2026-05-01 12:02 39.54286 2.73207 34 ft 10 kts 113°
2026-05-01 12:02 39.54278 2.73304 35 ft 12 kts 94°
2026-05-01 12:02 39.54272 2.73422 34 ft 15 kts 94°
2026-05-01 12:03 39.54332 2.73615 30 ft 40 kts 58°
2026-05-01 12:03 39.54601 2.74181 30 ft 104 kts 58°
2026-05-01 12:03 39.55075 2.75180 27 ft 153 kts 59°
2026-05-01 12:03 39.55642 2.76422 494 ft 160 kts 59°
2026-05-01 12:04 39.56211 2.77645 1191 ft 158 kts 60°
2026-05-01 12:04 39.56796 2.78850 1796 ft 158 kts 59°
2026-05-01 12:04 39.57392 2.80101 2249 ft 172 kts 61°
2026-05-01 12:04 39.58023 2.81512 2536 ft 193 kts 62°
2026-05-01 12:05 39.58740 2.83120 2772 ft 216 kts 61°
2026-05-01 12:05 39.60365 2.86733 3643 ft 246 kts 61°
2026-05-01 12:05 39.61254 2.88692 4257 ft 256 kts 61°
2026-05-01 12:06 39.62169 2.90703 5038 ft 261 kts 62°
2026-05-01 12:06 39.63082 2.92761 5784 ft 266 kts 62°
2026-05-01 12:06 39.63995 2.94868 6514 ft 270 kts 63°
2026-05-01 12:06 39.64920 2.97019 7221 ft 275 kts 63°
2026-05-01 12:07 39.65858 2.99204 7899 ft 280 kts 63°
2026-05-01 12:07 39.66814 3.01430 8576 ft 285 kts 62°
2026-05-01 12:07 39.67790 3.03694 9258 ft 290 kts 62°
2026-05-01 12:07 39.68792 3.06010 9948 ft 296 kts 61°
2026-05-01 12:08 39.69809 3.08356 10377 ft 310 kts 61°
2026-05-01 12:08 39.70912 3.10905 10511 ft 333 kts 61°
2026-05-01 12:08 39.72072 3.13589 10649 ft 353 kts 61°
2026-05-01 12:08 39.73299 3.16436 11085 ft 362 kts 61°
2026-05-01 12:09 39.74527 3.19287 11676 ft 366 kts 61°
2026-05-01 12:09 39.75776 3.22188 12304 ft 369 kts 60°
2026-05-01 12:09 39.77034 3.25090 12928 ft 372 kts 58°
2026-05-01 12:09 39.78578 3.27827 13530 ft 375 kts 48°
2026-05-01 12:10 39.80301 3.30398 14125 ft 378 kts 48°
2026-05-01 12:10 39.83779 3.35596 15184 ft 384 kts 48°
2026-05-01 12:10 39.85534 3.38229 15708 ft 387 kts 48°
2026-05-01 12:11 39.89082 3.43562 16732 ft 392 kts 48°
2026-05-01 12:11 39.90873 3.46260 17237 ft 395 kts 48°
2026-05-01 12:11 39.92671 3.48974 17731 ft 397 kts 48°
2026-05-01 12:12 39.94483 3.51713 18197 ft 400 kts 48°
2026-05-01 12:12 39.96303 3.54469 18625 ft 402 kts 48°
2026-05-01 12:12 39.98134 3.57241 18997 ft 405 kts 48°
2026-05-01 12:12 39.99977 3.60029 19372 ft 407 kts 48°
2026-05-01 12:13 40.01830 3.62829 19739 ft 409 kts 48°
2026-05-01 12:13 40.03696 3.65651 20112 ft 411 kts 49°
2026-05-01 12:13 40.05567 3.68488 20479 ft 413 kts 49°
2026-05-01 12:13 40.07450 3.71345 20855 ft 416 kts 49°
2026-05-01 12:14 40.09335 3.74213 21249 ft 418 kts 49°
2026-05-01 12:14 40.11228 3.77101 21639 ft 420 kts 49°
2026-05-01 12:14 40.13134 3.80006 22038 ft 422 kts 49°
2026-05-01 12:14 40.15049 3.82919 22430 ft 424 kts 49°
2026-05-01 12:15 40.16977 3.85850 22823 ft 426 kts 49°
2026-05-01 12:15 40.18912 3.88796 23211 ft 429 kts 49°
2026-05-01 12:15 40.20856 3.91763 23607 ft 431 kts 49°
2026-05-01 12:15 40.22815 3.94760 23947 ft 434 kts 49°
2026-05-01 12:16 40.24776 3.97767 24248 ft 436 kts 49°
2026-05-01 12:16 40.26757 4.00806 24553 ft 439 kts 49°
2026-05-01 12:16 40.28742 4.03853 24854 ft 441 kts 49°
2026-05-01 12:16 40.30738 4.06923 25148 ft 444 kts 49°
2026-05-01 12:17 40.32747 4.10018 25459 ft 446 kts 49°
2026-05-01 12:17 40.34762 4.13118 25752 ft 448 kts 48°
2026-05-01 12:17 40.36787 4.16234 26061 ft 450 kts 48°
2026-05-01 12:17 40.38824 4.19368 26357 ft 452 kts 49°
2026-05-01 12:18 40.40867 4.22523 26648 ft 455 kts 49°
2026-05-01 12:18 40.42914 4.25695 26940 ft 457 kts 49°
2026-05-01 12:18 40.44974 4.28884 27233 ft 459 kts 49°
2026-05-01 12:18 40.47158 4.31951 27510 ft 460 kts 41°
2026-05-01 12:19 40.49687 4.34526 27785 ft 460 kts 31°
2026-05-01 12:19 40.52496 4.36527 28041 ft 461 kts 22°
2026-05-01 12:19 40.55526 4.37901 28304 ft 461 kts 12°
2026-05-01 12:19 40.58669 4.38713 28540 ft 462 kts
2026-05-01 12:20 40.61797 4.39453 28769 ft 463 kts
2026-05-01 12:20 40.64974 4.40214 29002 ft 465 kts
2026-05-01 12:20 40.68159 4.40982 29220 ft 466 kts
2026-05-01 12:20 40.71357 4.41756 29426 ft 468 kts
2026-05-01 12:21 40.74566 4.42535 29614 ft 469 kts
2026-05-01 12:21 40.77818 4.43321 29884 ft 468 kts
2026-05-01 12:21 40.81016 4.44089 30162 ft 468 kts
2026-05-01 12:21 40.84225 4.44859 30411 ft 467 kts
2026-05-01 12:22 40.87385 4.45618 30641 ft 467 kts
2026-05-01 12:22 40.90581 4.46387 30885 ft 467 kts
2026-05-01 12:22 40.93781 4.47155 31112 ft 466 kts
2026-05-01 12:22 40.96970 4.47926 31354 ft 466 kts
2026-05-01 12:23 41.00149 4.48697 31597 ft 465 kts
2026-05-01 12:23 41.03330 4.49468 31849 ft 464 kts
2026-05-01 12:23 41.06508 4.50237 32099 ft 464 kts
2026-05-01 12:23 41.09684 4.51007 32357 ft 463 kts
2026-05-01 12:24 41.12850 4.51777 32622 ft 462 kts
2026-05-01 12:24 41.16011 4.52547 32890 ft 462 kts
2026-05-01 12:24 41.19168 4.53318 33151 ft 461 kts
2026-05-01 12:24 41.22315 4.54089 33419 ft 460 kts
2026-05-01 12:25 41.25462 4.54860 33695 ft 459 kts
2026-05-01 12:25 41.31739 4.56401 34211 ft 458 kts
2026-05-01 12:25 41.34867 4.57167 34436 ft 457 kts
2026-05-01 12:26 41.37999 4.57933 34646 ft 457 kts
2026-05-01 12:26 41.44246 4.59464 35064 ft 456 kts
2026-05-01 12:26 41.47365 4.60230 35264 ft 456 kts
2026-05-01 12:27 41.50475 4.60998 35473 ft 455 kts
2026-05-01 12:27 41.56704 4.62544 35869 ft 455 kts
2026-05-01 12:28 41.62928 4.64089 36218 ft 454 kts
2026-05-01 12:28 41.66019 4.64932 36259 ft 454 kts 14°
2026-05-01 12:29 41.74688 4.70198 36257 ft 457 kts 23°
2026-05-01 12:29 41.82295 4.75150 36265 ft 456 kts 23°
2026-05-01 12:30 41.90857 4.80721 36258 ft 456 kts 23°
2026-05-01 12:31 41.96559 4.84428 36265 ft 455 kts 23°
2026-05-01 12:31 42.02264 4.88141 36276 ft 455 kts 23°
2026-05-01 12:32 42.07955 4.91871 36270 ft 455 kts 23°
2026-05-01 12:32 42.16491 4.97469 36278 ft 455 kts 23°
2026-05-01 12:33 42.22177 5.01204 36294 ft 454 kts 23°
2026-05-01 12:33 42.27858 5.04939 36298 ft 454 kts 23°
2026-05-01 12:34 42.33534 5.08687 36290 ft 454 kts 23°
2026-05-01 12:34 42.39210 5.12437 36292 ft 454 kts 23°
2026-05-01 12:35 42.44885 5.16191 36299 ft 454 kts 23°
2026-05-01 12:35 42.50558 5.19954 36305 ft 454 kts 24°
2026-05-01 12:36 42.56223 5.23727 36306 ft 454 kts 24°
2026-05-01 12:36 42.61888 5.27498 36305 ft 453 kts 23°
2026-05-01 12:37 42.67545 5.31274 36323 ft 453 kts 24°
2026-05-01 12:37 42.73192 5.35055 36321 ft 452 kts 23°
2026-05-01 12:38 42.78831 5.38830 36320 ft 452 kts 24°
2026-05-01 12:38 42.84466 5.42621 36314 ft 451 kts 23°
2026-05-01 12:39 42.90095 5.46415 36316 ft 450 kts 24°
2026-05-01 12:39 42.95700 5.50200 36314 ft 450 kts 23°
2026-05-01 12:40 43.01304 5.53984 36312 ft 449 kts 23°
2026-05-01 12:40 43.06915 5.57776 36306 ft 449 kts 24°
2026-05-01 12:41 43.12509 5.61566 36306 ft 449 kts 23°
2026-05-01 12:41 43.18105 5.65370 36300 ft 449 kts 24°
2026-05-01 12:42 43.23692 5.69180 36301 ft 449 kts 24°
2026-05-01 12:42 43.29278 5.73001 36301 ft 449 kts 24°
2026-05-01 12:43 43.34863 5.76836 36302 ft 449 kts 24°
2026-05-01 12:43 43.40446 5.80668 36300 ft 449 kts 24°
2026-05-01 12:44 43.46032 5.84503 36299 ft 448 kts 24°
2026-05-01 12:45 43.57143 5.92150 36299 ft 447 kts 24°
2026-05-01 12:45 43.62707 5.96002 36302 ft 447 kts 24°
2026-05-01 12:46 43.68262 5.99853 36301 ft 447 kts 24°
2026-05-01 12:46 43.73813 6.03707 36306 ft 446 kts 24°
2026-05-01 12:47 43.79360 6.07571 36308 ft 446 kts 24°
2026-05-01 12:47 43.84905 6.11443 36309 ft 446 kts 24°
2026-05-01 12:48 43.90449 6.15305 36308 ft 446 kts 24°
2026-05-01 12:48 43.95986 6.19179 36311 ft 446 kts 24°
2026-05-01 12:49 44.01521 6.23063 36310 ft 446 kts 24°
2026-05-01 12:49 44.07053 6.26951 36307 ft 445 kts 24°
2026-05-01 12:50 44.12583 6.30851 36308 ft 446 kts 24°
2026-05-01 12:50 44.18109 6.34753 36309 ft 445 kts 24°
2026-05-01 12:51 44.23633 6.38673 36305 ft 445 kts 24°
2026-05-01 12:52 44.31911 6.44554 36301 ft 445 kts 24°
2026-05-01 12:52 44.40175 6.50446 36297 ft 444 kts 24°
2026-05-01 12:53 44.48419 6.56312 36302 ft 443 kts 24°
2026-05-01 12:54 44.53897 6.60238 36302 ft 442 kts 25°
2026-05-01 12:54 44.62099 6.66123 36309 ft 441 kts 24°
2026-05-01 12:55 44.70296 6.72024 36316 ft 441 kts 25°
2026-05-01 12:56 44.75752 6.75965 36328 ft 440 kts 23°
2026-05-01 12:56 44.81546 6.78502 36331 ft 435 kts
2026-05-01 12:57 44.87559 6.78546 36330 ft 433 kts 355°
2026-05-01 12:57 44.96594 6.77953 36330 ft 434 kts 355°
2026-05-01 12:58 45.02624 6.77561 36332 ft 434 kts 355°
2026-05-01 12:59 45.11687 6.76940 36328 ft 435 kts 355°
2026-05-01 12:59 45.20769 6.76334 36318 ft 436 kts 355°
2026-05-01 13:00 45.29871 6.75727 36312 ft 437 kts 355°
2026-05-01 13:01 45.38993 6.75124 36307 ft 438 kts 356°
2026-05-01 13:02 45.48149 6.74508 36305 ft 439 kts 355°
2026-05-01 13:07 46.12761 6.70512 36276 ft 447 kts
2026-05-01 13:07 46.15814 6.71409 36275 ft 449 kts 15°
2026-05-01 13:08 46.21767 6.73952 36279 ft 450 kts 15°
2026-05-01 13:08 46.27777 6.76501 36281 ft 450 kts 15°
2026-05-01 13:09 46.33803 6.79047 36281 ft 451 kts 15°
2026-05-01 13:09 46.39830 6.81611 36287 ft 451 kts 15°
2026-05-01 13:10 46.45855 6.84180 36300 ft 451 kts 15°
2026-05-01 13:10 46.51859 6.86891 36308 ft 452 kts 22°
2026-05-01 13:11 46.57191 6.91638 36310 ft 452 kts 41°
2026-05-01 13:11 46.61368 6.98445 36308 ft 452 kts 51°
2026-05-01 13:12 46.64648 7.04361 36309 ft 452 kts 51°
2026-05-01 13:12 46.68598 7.11478 36314 ft 452 kts 51°
2026-05-01 13:13 46.72539 7.18599 36317 ft 451 kts 51°
2026-05-01 13:13 46.76462 7.25726 36300 ft 450 kts 51°
2026-05-01 13:14 46.80373 7.32852 36297 ft 450 kts 51°
2026-05-01 13:14 46.84272 7.39978 36296 ft 449 kts 51°
2026-05-01 13:15 46.88160 7.47096 36295 ft 448 kts 51°
2026-05-01 13:15 46.92040 7.54223 36298 ft 447 kts 51°
2026-05-01 13:16 46.95905 7.61351 36298 ft 447 kts 51°
2026-05-01 13:16 46.99769 7.68485 36299 ft 446 kts 51°
2026-05-01 13:17 47.07450 7.82754 36289 ft 445 kts 51°
2026-05-01 13:18 47.13175 7.93414 36304 ft 445 kts 52°
2026-05-01 13:18 47.16554 8.01109 36312 ft 445 kts 57°
2026-05-01 13:19 47.19835 8.08816 36316 ft 445 kts 57°
2026-05-01 13:20 47.24721 8.20321 36317 ft 443 kts 57°
2026-05-01 13:20 47.28016 8.27991 36318 ft 442 kts 53°
2026-05-01 13:21 47.32338 8.34340 36332 ft 439 kts 34°
2026-05-01 13:21 47.34955 8.36652 36335 ft 438 kts 25°
2026-05-01 13:21 47.40460 8.40510 36339 ft 438 kts 25°
2026-05-01 13:22 47.45957 8.44417 36339 ft 438 kts 25°
2026-05-01 13:22 47.51449 8.48336 36339 ft 438 kts 25°
2026-05-01 13:23 47.56935 8.52256 36339 ft 438 kts 25°
2026-05-01 13:23 47.62423 8.56166 36332 ft 437 kts 25°
2026-05-01 13:24 47.67903 8.60082 36324 ft 437 kts 25°
2026-05-01 13:25 47.76082 8.65937 36312 ft 436 kts 25°
2026-05-01 13:25 47.81550 8.69859 36306 ft 436 kts 25°
2026-05-01 13:26 47.87010 8.73794 36306 ft 436 kts 25°
2026-05-01 13:26 47.92462 8.77733 36309 ft 435 kts 25°
2026-05-01 13:27 47.97912 8.81664 36301 ft 435 kts 25°
2026-05-01 13:27 48.06078 8.87586 36302 ft 435 kts 25°
2026-05-01 13:28 48.14231 8.93519 36300 ft 434 kts 23°
2026-05-01 13:29 48.20030 8.95850 36299 ft 433 kts
2026-05-01 13:29 48.26026 8.96743 35958 ft 433 kts
2026-05-01 13:30 48.38018 8.98547 34471 ft 435 kts
2026-05-01 13:31 48.44029 8.99467 33403 ft 431 kts
2026-05-01 13:31 48.52827 9.00814 31838 ft 417 kts
2026-05-01 13:32 48.58539 9.01689 30840 ft 408 kts
2026-05-01 13:33 48.66863 9.03143 29218 ft 395 kts
2026-05-01 13:33 48.72194 9.04476 28140 ft 386 kts 10°
2026-05-01 13:34 48.77427 9.05818 27089 ft 376 kts 10°
2026-05-01 13:34 48.82532 9.07064 26081 ft 368 kts 10°
2026-05-01 13:35 48.87567 9.08263 25101 ft 361 kts 10°
2026-05-01 13:35 48.90013 9.08782 24631 ft 359 kts
2026-05-01 13:35 48.94960 9.09507 23667 ft 354 kts
2026-05-01 13:36 48.97407 9.09809 23118 ft 352 kts
2026-05-01 13:36 48.99858 9.10111 22580 ft 351 kts
2026-05-01 13:36 49.04681 9.10748 21537 ft 348 kts
2026-05-01 13:37 49.07087 9.11086 21030 ft 347 kts
2026-05-01 13:37 49.09485 9.11428 20528 ft 345 kts
2026-05-01 13:37 49.11872 9.11771 20034 ft 344 kts
2026-05-01 13:37 49.14278 9.12118 19552 ft 359 kts
2026-05-01 13:38 49.19683 9.12914 18600 ft 415 kts
2026-05-01 13:38 49.22579 9.13335 18065 ft 418 kts
2026-05-01 13:38 49.25472 9.13750 17541 ft 417 kts
2026-05-01 13:39 49.28347 9.14213 17023 ft 413 kts 11°
2026-05-01 13:39 49.31142 9.15126 16512 ft 409 kts 15°
2026-05-01 13:39 49.33904 9.16101 16009 ft 407 kts 15°
2026-05-01 13:39 49.36656 9.17072 15518 ft 404 kts 15°
2026-05-01 13:40 49.39405 9.18046 15028 ft 402 kts 15°
2026-05-01 13:40 49.42096 9.19002 14559 ft 399 kts 15°
2026-05-01 13:40 49.44984 9.20027 14039 ft 389 kts 15°
2026-05-01 13:40 49.47599 9.20953 13512 ft 381 kts 15°
2026-05-01 13:41 49.50167 9.21862 12987 ft 375 kts 15°
2026-05-01 13:41 49.52691 9.22760 12470 ft 369 kts 15°
2026-05-01 13:41 49.55171 9.23647 11971 ft 364 kts 15°
2026-05-01 13:41 49.57616 9.24525 11472 ft 359 kts 15°
2026-05-01 13:42 49.60033 9.25393 10986 ft 354 kts 15°
2026-05-01 13:42 49.62418 9.26251 10515 ft 349 kts 15°
2026-05-01 13:42 49.64745 9.27087 10325 ft 336 kts 15°
2026-05-01 13:42 49.66962 9.27880 10329 ft 318 kts 14°
2026-05-01 13:43 49.69039 9.28621 10328 ft 303 kts 15°
2026-05-01 13:43 49.71069 9.29349 10092 ft 298 kts 15°
2026-05-01 13:43 49.73073 9.30067 9974 ft 295 kts 15°
2026-05-01 13:43 49.75102 9.30796 9989 ft 297 kts 15°
2026-05-01 13:44 49.77116 9.31524 9842 ft 298 kts 15°
2026-05-01 13:44 49.79134 9.32254 9579 ft 296 kts 15°
2026-05-01 13:44 49.81137 9.32979 9324 ft 296 kts 15°
2026-05-01 13:44 49.83146 9.33413 9064 ft 297 kts 358°
2026-05-01 13:45 49.85160 9.32571 8803 ft 298 kts 331°
2026-05-01 13:45 49.86715 9.30556 8552 ft 297 kts 306°
2026-05-01 13:45 49.87609 9.27721 8303 ft 293 kts 284°
2026-05-01 13:45 49.88186 9.24677 8036 ft 293 kts 284°
2026-05-01 13:46 49.88760 9.21654 7782 ft 291 kts 284°
2026-05-01 13:46 49.89333 9.18645 7542 ft 291 kts 284°
2026-05-01 13:46 49.89904 9.15643 7293 ft 290 kts 284°
2026-05-01 13:46 49.90472 9.12652 7069 ft 289 kts 284°
2026-05-01 13:47 49.91037 9.09669 6982 ft 287 kts 284°
2026-05-01 13:47 49.91603 9.06688 6989 ft 288 kts 284°
2026-05-01 13:47 49.92168 9.03702 6986 ft 288 kts 284°
2026-05-01 13:47 49.92735 9.00724 6988 ft 288 kts 284°
2026-05-01 13:48 49.93304 8.97748 6987 ft 288 kts 284°
2026-05-01 13:48 49.93874 8.94772 6990 ft 288 kts 284°
2026-05-01 13:48 49.94439 8.91815 6987 ft 287 kts 284°
2026-05-01 13:48 49.95008 8.88832 6977 ft 286 kts 284°
2026-05-01 13:49 49.95573 8.85861 6983 ft 287 kts 284°
2026-05-01 13:49 49.95948 8.83888 6989 ft 287 kts 284°
2026-05-01 13:49 49.96695 8.79940 6987 ft 287 kts 284°
2026-05-01 13:49 49.97259 8.76963 6988 ft 287 kts 284°
2026-05-01 13:50 49.97625 8.74949 6981 ft 286 kts 281°
2026-05-01 13:50 49.97829 8.71905 6975 ft 282 kts 265°
2026-05-01 13:50 49.97557 8.68953 6987 ft 279 kts 251°
2026-05-01 13:50 49.96910 8.66122 6985 ft 277 kts 246°
2026-05-01 13:51 49.96231 8.63316 6982 ft 278 kts 246°
2026-05-01 13:51 49.95556 8.60509 6981 ft 277 kts 246°
2026-05-01 13:51 49.94882 8.57706 6980 ft 277 kts 246°
2026-05-01 13:51 49.94206 8.54901 6986 ft 278 kts 246°
2026-05-01 13:52 49.93525 8.52088 6977 ft 278 kts 246°
2026-05-01 13:52 49.92844 8.49270 6919 ft 279 kts 246°
2026-05-01 13:52 49.92180 8.46501 6662 ft 276 kts 246°
2026-05-01 13:52 49.91513 8.43711 6463 ft 275 kts 246°
2026-05-01 13:53 49.90844 8.40926 6309 ft 275 kts 246°
2026-05-01 13:53 49.89498 8.35396 5990 ft 274 kts 246°
2026-05-01 13:53 49.88825 8.32632 5844 ft 273 kts 246°
2026-05-01 13:54 49.88154 8.29877 5692 ft 272 kts 246°
2026-05-01 13:54 49.87487 8.27134 5539 ft 271 kts 246°
2026-05-01 13:54 49.86828 8.24418 5395 ft 271 kts 246°
2026-05-01 13:54 49.86160 8.21664 5237 ft 270 kts 245°
2026-05-01 13:55 49.85502 8.18954 5088 ft 271 kts 245°
2026-05-01 13:55 49.84835 8.16226 4993 ft 270 kts 245°
2026-05-01 13:55 49.84168 8.13502 4993 ft 270 kts 245°
2026-05-01 13:55 49.83503 8.10782 4995 ft 271 kts 245°
2026-05-01 13:56 49.82833 8.08043 4994 ft 271 kts 245°
2026-05-01 13:56 49.82165 8.05315 4988 ft 271 kts 246°
2026-05-01 13:56 49.81498 8.02585 4990 ft 271 kts 246°
2026-05-01 13:56 49.80829 7.99853 4994 ft 270 kts 246°
2026-05-01 13:57 49.80160 7.97131 4998 ft 271 kts 245°
2026-05-01 13:57 49.79499 7.94441 4988 ft 270 kts 245°
2026-05-01 13:57 49.78821 7.91685 4995 ft 271 kts 245°
2026-05-01 13:57 49.78166 7.88992 4991 ft 271 kts 247°
2026-05-01 13:58 49.77899 7.86083 4985 ft 276 kts 269°
2026-05-01 13:58 49.78360 7.83208 4984 ft 273 kts 294°
2026-05-01 13:58 49.79434 7.80890 5003 ft 257 kts 315°
2026-05-01 13:58 49.80895 7.79357 4993 ft 254 kts 336°
2026-05-01 13:59 49.82604 7.78686 4991 ft 252 kts 358°
2026-05-01 13:59 49.84319 7.78947 4985 ft 248 kts 19°
2026-05-01 13:59 49.85861 7.80077 4990 ft 244 kts 39°
2026-05-01 13:59 49.87046 7.81901 4988 ft 239 kts 59°
2026-05-01 14:00 49.87783 7.84174 4998 ft 235 kts 75°
2026-05-01 14:00 49.88341 7.86553 4988 ft 234 kts 74°
2026-05-01 14:00 49.88914 7.88913 4992 ft 235 kts 73°
2026-05-01 14:00 49.89498 7.91288 5011 ft 236 kts 73°
2026-05-01 14:01 49.90073 7.93607 4987 ft 221 kts 73°
2026-05-01 14:01 49.90612 7.95789 4992 ft 214 kts 73°
2026-05-01 14:01 49.91140 7.97944 4990 ft 213 kts 74°
2026-05-01 14:01 49.91661 8.00069 5001 ft 213 kts 74°
2026-05-01 14:02 49.92192 8.02238 5002 ft 223 kts 73°
2026-05-01 14:02 49.92757 8.04553 5015 ft 233 kts 73°
2026-05-01 14:02 49.93339 8.06922 4997 ft 234 kts 73°
2026-05-01 14:02 49.93914 8.09272 5000 ft 233 kts 74°
2026-05-01 14:03 49.94492 8.11638 5002 ft 235 kts 73°
2026-05-01 14:03 49.95067 8.13994 4997 ft 234 kts 73°
2026-05-01 14:03 49.95646 8.16371 4973 ft 235 kts 73°
2026-05-01 14:03 49.96219 8.18723 4723 ft 234 kts 73°
2026-05-01 14:04 49.96790 8.21070 4388 ft 229 kts 73°
2026-05-01 14:04 49.97351 8.23377 4077 ft 227 kts 72°
2026-05-01 14:04 49.97899 8.25636 3759 ft 219 kts 73°
2026-05-01 14:04 49.98428 8.27814 3452 ft 210 kts 72°
2026-05-01 14:05 49.98933 8.29903 3164 ft 203 kts 72°
2026-05-01 14:05 49.99415 8.31895 2889 ft 197 kts 72°
2026-05-01 14:05 49.99886 8.33844 2606 ft 186 kts 72°
2026-05-01 14:05 50.00334 8.35697 2353 ft 180 kts 71°
2026-05-01 14:06 50.00771 8.37510 2089 ft 175 kts 73°
2026-05-01 14:06 50.01178 8.39194 1860 ft 161 kts 73°
2026-05-01 14:06 50.01561 8.40781 1626 ft 153 kts 73°
2026-05-01 14:06 50.01920 8.42269 1421 ft 143 kts 73°
2026-05-01 14:07 50.02264 8.43702 1200 ft 140 kts 73°
2026-05-01 14:07 50.02596 8.45082 1000 ft 132 kts 72°
2026-05-01 14:07 50.02912 8.46418 802 ft 132 kts 72°
2026-05-01 14:08 50.03556 8.49066 424 ft 131 kts 74°
2026-05-01 14:08 50.03852 8.50385 324 ft 124 kts 68°
2026-05-01 14:08 50.04093 8.51368 337 ft 76 kts 69°
2026-05-01 14:08 50.04231 8.51941 353 ft 39 kts 75°
2026-05-01 14:09 50.04220 8.52301 350 ft 20 kts 99°
2026-05-01 14:09 50.04204 8.52440 344 ft 0 kts 99°
2026-05-01 14:10 50.04204 8.52441 344 ft 0 kts 99°
2026-05-01 14:11 50.04197 8.52503 354 ft 13 kts 100°
2026-05-01 14:11 50.04245 8.52867 358 ft 18 kts 69°
2026-05-01 14:11 50.04291 8.53055 364 ft 21 kts 70°
2026-05-01 14:12 50.04357 8.53328 368 ft 30 kts 70°
2026-05-01 14:12 50.04407 8.53646 367 ft 31 kts 83°
2026-05-01 14:12 50.04426 8.53991 374 ft 30 kts 83°
2026-05-01 14:12 50.04448 8.54283 367 ft 21 kts 79°
2026-05-01 14:13 50.04442 8.54520 355 ft 25 kts 99°
2026-05-01 14:13 50.04387 8.54680 359 ft 26 kts 131°
2026-05-01 14:13 50.04213 8.54829 354 ft 22 kts 160°
2026-05-01 14:13 50.04077 8.54906 350 ft 17 kts 160°
2026-05-01 14:14 50.04023 8.55031 358 ft 15 kts 78°
2026-05-01 14:14 50.04050 8.55153 355 ft 11 kts 69°
2026-05-01 14:14 50.04079 8.55272 358 ft 15 kts 69°
2026-05-01 14:14 50.04122 8.55451 357 ft 13 kts 69°
2026-05-01 14:15 50.04150 8.55570 359 ft 12 kts 69°
2026-05-01 14:15 50.04168 8.55643 359 ft 8 kts 69°
2026-05-01 14:15 50.04155 8.55720 360 ft 9 kts 158°
2026-05-01 14:15 50.04109 8.55746 361 ft 4 kts 158°
2026-05-01 14:16 50.04097 8.55754 356 ft 0 kts 159°